Weather History for Eureka Airport, NV

Change the Weather History Date:

Wednesday, December 5, 2012

  Actual Average Record
Temperature  
Mean Temperature 42 °F -  
Max Temperature 48 °F - - ()
Min Temperature 35 °F - - ()
Degree Days  
Heating Degree Days 24    
Moisture  
Dew Point 36 °F    
Average Humidity 80    
Maximum Humidity 93    
Minimum Humidity 66    
Precipitation  
Precipitation 0.02 in - - ()
Sea Level Pressure  
Sea Level Pressure 30.18 in    
Wind  
Wind Speed 4 mph (SW)    
Max Wind Speed 10 mph    
Max Gust Speed -    
Visibility 10 miles    
Events      
T = Trace of Precipitation, MM = Missing Value Source: NWS Daily Summary

Daily Weather History Graph

Daily Weather History Graph

Search for Another Location

Airport:

Trip Planner

Search our weather history database for the weather conditions in past years. The results will help you decide how hot, cold, wet, or windy it might be!

Date:

Astronomy

Dec. 05, 2012 Rise Set
Actual Time 6:49 AM PST 4:19 PM PST
Civil Twilight 6:19 AM PST 4:49 PM PST
Nautical Twilight 5:46 AM PST 5:23 PM PST
Astronomical Twilight 5:13 AM PST 5:55 PM PST
Moon 11:12 PM PST (12/5) 11:16 AM PST (12/5)
Length of Visible Light 10h 29m
Length of Day
9h 29m
Waning Gibbous, 58% of the Moon is Illuminated
Dec 5
Waning Gibbous
Dec 6
Last Quarter
Dec 13
New
Dec 19
First Quarter
Dec 28
Full

Hourly Weather History & Observations

Time (PST) Temp. Windchill Dew Point Humidity Pressure Visibility Wind Dir Wind Speed Gust Speed Precip Events Conditions
12:00 AM 41.0 °F 38.0 °F 32.0 °F 70% 30.22 in 10.0 mi SSW 4.6 mph - N/A   Overcast
12:20 AM 41.0 °F 35.8 °F 32.0 °F 70% 30.22 in 10.0 mi South 8.1 mph - N/A   Overcast
12:40 AM 41.0 °F 37.1 °F 32.0 °F 70% 30.21 in 10.0 mi SSW 5.8 mph - N/A   Mostly Cloudy
1:00 AM 41.0 °F 37.1 °F 32.0 °F 70% 30.21 in 10.0 mi South 5.8 mph - N/A   Mostly Cloudy
1:20 AM 39.2 °F 34.2 °F 32.0 °F 75% 30.21 in 10.0 mi SSW 6.9 mph - N/A   Overcast
1:40 AM 39.2 °F 35.0 °F 32.0 °F 75% 30.20 in 10.0 mi SSW 5.8 mph - N/A   Mostly Cloudy
2:00 AM 39.2 °F 33.6 °F 32.0 °F 75% 30.21 in 10.0 mi SSW 8.1 mph - N/A   Mostly Cloudy
2:20 AM 37.4 °F 32.1 °F 32.0 °F 81% 30.20 in 10.0 mi SSW 6.9 mph - N/A   Overcast
2:40 AM 37.4 °F 32.1 °F 32.0 °F 81% 30.19 in 10.0 mi SSW 6.9 mph - N/A   Scattered Clouds
3:00 AM 37.4 °F 32.1 °F 32.0 °F 81% 30.18 in 10.0 mi SSW 6.9 mph - N/A   Mostly Cloudy
3:20 AM 35.6 °F 30.7 °F 32.0 °F 87% 30.18 in 10.0 mi SW 5.8 mph - N/A   Partly Cloudy
3:40 AM 35.6 °F - 32.0 °F 87% 30.18 in 10.0 mi Calm Calm - N/A   Mostly Cloudy
4:00 AM 37.4 °F - 32.0 °F 81% 30.19 in 10.0 mi Calm Calm - N/A   Overcast
4:20 AM 37.4 °F - 32.0 °F 81% 30.19 in 10.0 mi Calm Calm - N/A   Overcast
4:40 AM 37.4 °F - 32.0 °F 81% 30.19 in 10.0 mi Calm Calm - N/A   Overcast
5:00 AM 37.4 °F 33.8 °F 32.0 °F 81% 30.19 in 10.0 mi South 4.6 mph - N/A   Overcast
7:00 AM 39.2 °F 34.2 °F 32.0 °F 75% 30.21 in 10.0 mi WSW 6.9 mph - N/A   Overcast
7:20 AM 39.2 °F 35.9 °F 32.0 °F 75% 30.21 in 10.0 mi West 4.6 mph - N/A   Overcast
7:40 AM 39.2 °F 35.0 °F 33.8 °F 81% 30.21 in 10.0 mi SW 5.8 mph - N/A   Overcast
8:00 AM 39.2 °F - 35.6 °F 87% 30.21 in 10.0 mi Calm Calm - N/A   Overcast
8:20 AM 39.2 °F - 35.6 °F 87% 30.21 in 10.0 mi Calm Calm - N/A   Overcast
8:40 AM 41.0 °F - 35.6 °F 81% 30.22 in 10.0 mi Calm Calm - N/A   Overcast
9:00 AM 41.0 °F - 35.6 °F 81% 30.23 in 4.0 mi Calm Calm - N/A   Overcast
9:20 AM 41.0 °F 39.0 °F 37.4 °F 87% 30.24 in 3.0 mi SSE 3.5 mph - 0.01 in   Overcast
9:40 AM 42.8 °F 40.1 °F 39.2 °F 87% 30.24 in 6.0 mi South 4.6 mph - 0.01 in   Mostly Cloudy
10:00 AM 44.6 °F - 39.2 °F 81% 30.23 in 6.0 mi Calm Calm - 0.01 in   Mostly Cloudy
10:20 AM 44.6 °F 41.4 °F 39.2 °F 81% 30.24 in 10.0 mi SW 5.8 mph - N/A   Overcast
10:40 AM 46.4 °F 42.9 °F 39.2 °F 76% 30.23 in 10.0 mi SW 6.9 mph - N/A   Mostly Cloudy
11:20 AM 46.4 °F 41.5 °F 39.2 °F 76% 30.21 in 10.0 mi SW 10.4 mph - N/A   Mostly Cloudy
11:40 AM 48.2 °F - 41.0 °F 76% 30.20 in 10.0 mi West 8.1 mph - N/A   Mostly Cloudy
12:00 PM 48.2 °F - 39.2 °F 71% 30.20 in 10.0 mi WNW 6.9 mph - N/A   Overcast
12:20 PM 48.2 °F - 39.2 °F 71% 30.19 in 10.0 mi West 8.1 mph - N/A   Overcast
12:40 PM 48.2 °F - 39.2 °F 71% 30.19 in 10.0 mi West 10.4 mph - N/A   Overcast
1:00 PM 48.2 °F - 39.2 °F 71% 30.18 in 10.0 mi Calm Calm - N/A   Overcast
1:20 PM 48.2 °F - 39.2 °F 71% 30.18 in 10.0 mi West 3.5 mph - N/A   Overcast
1:40 PM 48.2 °F - 37.4 °F 66% 30.17 in 10.0 mi West 5.8 mph - N/A   Overcast
2:00 PM 48.2 °F - 37.4 °F 66% 30.16 in 10.0 mi West 5.8 mph - N/A   Mostly Cloudy
2:20 PM 48.2 °F - 39.2 °F 71% 30.16 in 10.0 mi West 6.9 mph - N/A   Scattered Clouds
2:40 PM 48.2 °F - 39.2 °F 71% 30.16 in 10.0 mi West 5.8 mph - N/A   Partly Cloudy
3:00 PM 48.2 °F - 39.2 °F 71% 30.16 in 10.0 mi West 3.5 mph - N/A   Clear
3:20 PM 48.2 °F - 39.2 °F 71% 30.17 in 10.0 mi Calm Calm - N/A   Mostly Cloudy
3:40 PM 48.2 °F - 39.2 °F 71% 30.17 in 10.0 mi Calm Calm - N/A   Overcast
4:00 PM 46.4 °F - 39.2 °F 76% 30.16 in 10.0 mi Calm Calm - N/A   Overcast
4:20 PM 46.4 °F - 39.2 °F 76% 30.16 in 10.0 mi Calm Calm - N/A   Overcast
4:40 PM 46.4 °F 44.3 °F 39.2 °F 76% 30.16 in 10.0 mi West 4.6 mph - N/A   Overcast
5:00 PM 46.4 °F 43.5 °F 39.2 °F 76% 30.16 in 10.0 mi WSW 5.8 mph - N/A   Overcast
5:20 PM 44.6 °F - 39.2 °F 81% 30.16 in 10.0 mi Calm Calm - N/A   Overcast
5:40 PM 44.6 °F 43.1 °F 39.2 °F 81% 30.16 in 10.0 mi North 3.5 mph - N/A   Overcast
6:00 PM 42.8 °F 40.1 °F 39.2 °F 87% 30.16 in 10.0 mi NNW 4.6 mph - N/A   Overcast
6:20 PM 42.8 °F 40.1 °F 39.2 °F 87% 30.16 in 10.0 mi North 4.6 mph - N/A   Overcast
6:40 PM 42.8 °F 40.1 °F 39.2 °F 87% 30.16 in 10.0 mi North 4.6 mph - N/A   Overcast
7:00 PM 42.8 °F 41.1 °F 39.2 °F 87% 30.16 in 10.0 mi North 3.5 mph - N/A   Overcast
7:20 PM 42.8 °F - 39.2 °F 87% 30.16 in 10.0 mi Calm Calm - N/A   Overcast
8:00 PM 41.0 °F 37.1 °F 37.4 °F 87% 30.16 in 10.0 mi South 5.8 mph - N/A   Overcast
8:20 PM 39.2 °F 35.0 °F 37.4 °F 93% 30.16 in 10.0 mi South 5.8 mph - N/A   Mostly Cloudy
8:40 PM 37.4 °F 32.8 °F 35.6 °F 93% 30.15 in 10.0 mi SW 5.8 mph - N/A   Clear
9:00 PM 37.4 °F - 35.6 °F 93% 30.15 in 10.0 mi Calm Calm - N/A   Partly Cloudy
9:20 PM 37.4 °F - 35.6 °F 93% 30.15 in 10.0 mi Calm Calm - N/A   Mostly Cloudy
9:40 PM 37.4 °F - 35.6 °F 93% 30.15 in 10.0 mi Calm Calm - N/A   Overcast
10:00 PM 37.4 °F 33.8 °F 35.6 °F 93% 30.15 in 10.0 mi South 4.6 mph - N/A   Overcast
10:20 PM 37.4 °F 33.8 °F 35.6 °F 93% 30.15 in 10.0 mi SSE 4.6 mph - N/A   Overcast
10:40 PM 37.4 °F - 35.6 °F 93% 30.15 in 10.0 mi Calm Calm - N/A   Overcast
11:00 PM 37.4 °F 33.8 °F 35.6 °F 93% 30.15 in 10.0 mi SW 4.6 mph - N/A   Overcast
11:20 PM 39.2 °F - 35.6 °F 87% 30.15 in 10.0 mi Calm Calm - N/A   Overcast
11:40 PM 37.4 °F 34.9 °F 35.6 °F 93% 30.15 in 10.0 mi SSW 3.5 mph - N/A   Mostly Cloudy